Syracuse, NY

6:10 AM EST on December 12, 2019 (GMT -0500)
Syracuse Hancock International

Weather History for KSYR - October, 2019

Change the Weather History Date:

Tuesday, October 29, 2019

  Actual Average Record
Temperature  
Mean Temperature 57 °F 46 °F  
Max Temperature 68 °F 55 °F 76 °F (1945)
Min Temperature 46 °F 38 °F 18 °F (1940)
Degree Days  
Heating Degree Days 8 19  
Month to date heating degree days 351 414  
Since 1 July heating degree days 426 581  
Cooling Degree Days 0 0  
Month to date cooling degree days 11 0  
Year to date cooling degree days 622 565  
Growing Degree Days 7 (Base 50)    
Moisture  
Dew Point 47 °F    
Average Humidity 71    
Maximum Humidity 93    
Minimum Humidity 52    
Precipitation  
Precipitation 0.00 in 0.12 in 1.90 in (2017)
Month to date precipitation 4.92 3.23  
Year to date precipitation 39.05 31.51  
Snow  
Snow 0.00 in 0.00 in 2.40 in (1952)
Month to date snowfall 0.0 0.3  
Since 1 July snowfall T 0.3  
Since 1 September snowfall T 0.3  
Snow Depth 0.00 in    
Sea Level Pressure  
Sea Level Pressure 30.17 in    
Wind  
Wind Speed 8 mph ()    
Max Wind Speed 21 mph    
Max Gust Speed 28 mph    
Visibility 10.0 miles    
Events      
T = Trace of Precipitation, MM = Missing Value Source: Averaged Metar Reports

Daily Weather History Graph

Daily Weather History Graph

Search for Another Location

Airport or City:

Astronomy

Oct. 29, 2019 Rise Set
Actual Time 7:35 AM EDT 6:00 PM EDT
Civil Twilight 7:05 AM EDT 6:29 PM EDT
Nautical Twilight 6:32 AM EDT 7:03 PM EDT
Astronomical Twilight 5:59 AM EDT 7:36 PM EDT
Moon 9:07 AM EDT (10/29) 7:21 PM EDT (10/29)
Length of Visible Light 11h 24m
Length of Day
10h 25m
Waxing Crescent, 3% of the Moon is Illuminated
Oct 29
Waxing Crescent
Nov 4
First Quarter
Nov 12
Full
Nov 19
Last Quarter
Nov 26
New

Hourly Weather History & Observations

Time (EDT) Temp. Dew Point Humidity Pressure Visibility Wind Dir Wind Speed Gust Speed Precip Events Conditions
12:54 AM 46.9 °F 44.1 °F 90% 30.17 in 10.0 mi East 8.1 mph - N/A   Clear
1:54 AM 46.9 °F 44.1 °F 90% 30.16 in 10.0 mi East 6.9 mph - N/A   Clear
2:54 AM 48.0 °F 44.1 °F 86% 30.17 in 10.0 mi East 6.9 mph - N/A   Partly Cloudy
3:54 AM 50.0 °F 46.0 °F 86% 30.16 in 10.0 mi East 5.8 mph - N/A   Scattered Clouds
4:01 AM 51.1 °F 46.0 °F 83% 30.17 in 10.0 mi East 5.8 mph - N/A   Mostly Cloudy
4:45 AM 46.9 °F 44.1 °F 90% 30.15 in 10.0 mi East 9.2 mph - N/A   Scattered Clouds
4:54 AM 46.9 °F 44.1 °F 90% 30.15 in 10.0 mi East 9.2 mph - N/A   Scattered Clouds
5:54 AM 46.9 °F 43.0 °F 86% 30.16 in 10.0 mi East 6.9 mph - N/A   Scattered Clouds
6:54 AM 48.0 °F 43.0 °F 83% 30.16 in 10.0 mi East 4.6 mph - N/A   Scattered Clouds
7:54 AM 53.1 °F 45.0 °F 74% 30.17 in 10.0 mi SSE 10.4 mph - N/A   Scattered Clouds
8:54 AM 55.9 °F 46.0 °F 69% 30.19 in 10.0 mi SSE 6.9 mph - N/A   Partly Cloudy
9:54 AM 59.0 °F 46.0 °F 62% 30.19 in 10.0 mi South 15.0 mph 26.5 mph N/A   Scattered Clouds
10:54 AM 62.1 °F 46.9 °F 58% 30.17 in 10.0 mi South 16.1 mph 21.9 mph N/A   Scattered Clouds
11:54 AM 64.0 °F 46.9 °F 54% 30.17 in 10.0 mi South 16.1 mph - N/A   Partly Cloudy
12:54 PM 64.9 °F 48.0 °F 54% 30.16 in 10.0 mi South 11.5 mph 21.9 mph N/A   Partly Cloudy
1:54 PM 66.9 °F 48.9 °F 52% 30.14 in 10.0 mi South 15.0 mph 20.7 mph N/A   Partly Cloudy
2:54 PM 66.9 °F 48.9 °F 52% 30.14 in 10.0 mi SSE 13.8 mph - N/A   Partly Cloudy
3:54 PM 66.9 °F 48.9 °F 52% 30.14 in 10.0 mi South 11.5 mph - N/A   Partly Cloudy
4:54 PM 66.0 °F 48.9 °F 54% 30.14 in 10.0 mi SSW 13.8 mph - N/A   Partly Cloudy
5:54 PM 62.1 °F 48.0 °F 60% 30.14 in 10.0 mi SSE 10.4 mph - N/A   Scattered Clouds
6:54 PM 61.0 °F 48.0 °F 62% 30.14 in 10.0 mi SSE 9.2 mph - N/A   Scattered Clouds
7:54 PM 57.9 °F 48.0 °F 70% 30.17 in 10.0 mi South 8.1 mph - N/A   Scattered Clouds
8:54 PM 59.0 °F 48.9 °F 69% 30.19 in 10.0 mi South 6.9 mph - N/A   Overcast
9:54 PM 57.9 °F 48.0 °F 70% 30.20 in 10.0 mi Calm Calm - N/A   Mostly Cloudy
10:54 PM 57.0 °F 48.0 °F 72% 30.21 in 10.0 mi South 5.8 mph - N/A   Mostly Cloudy
11:54 PM 59.0 °F 48.9 °F 69% 30.22 in 10.0 mi South 9.2 mph - N/A   Overcast